This is the latest recevied weather packets stored in our database for station/object KY4GW. If no packets are shown the sender has not sent any weather packets the latest 10 day(s).
| Time | Temp. | Humidity | Pressure | Rain* | Wind** | Luminosity | Snow |
|---|---|---|---|---|---|---|---|
| 1777669400 | 13.89° C | 52% | 1017.3 hPa | 0 mm | - | 601 W/m² | - |
| 1777669096 | 13.89° C | 52% | 1016.9 hPa | 0 mm | - | 221 W/m² | - |
| 1777668794 | 13.89° C | 52% | 1016.9 hPa | 0 mm | - | 140 W/m² | - |
| 1777668490 | 13.89° C | 51% | 1016.9 hPa | 0 mm | - | 350 W/m² | - |
| 1777668187 | 13.89° C | 54% | 1016.9 hPa | 0 mm | - | 127 W/m² | - |
| 1777667883 | 15° C | 51% | 1016.9 hPa | 0 mm | - | 128 W/m² | - |
| 1777667580 | 15° C | 50% | 1016.9 hPa | 0 mm | - | 274 W/m² | - |
| 1777667277 | 15° C | 52% | 1016.9 hPa | 0 mm | - | 282 W/m² | - |
| 1777666974 | 14.44° C | 50% | 1016.9 hPa | 0 mm | - | 205 W/m² | - |
| 1777666671 | 15° C | 53% | 1016.9 hPa | 0 mm | - | 217 W/m² | - |
| 1777666368 | 15° C | 53% | 1016.9 hPa | 0 mm | - | 403 W/m² | - |
| 1777666064 | 15° C | 52% | 1016.9 hPa | 0 mm | - | 740 W/m² | - |
| 1777665762 | 14.44° C | 51% | 1016.9 hPa | 0 mm | - | 752 W/m² | - |
| 1777665459 | 15.56° C | 53% | 1016.9 hPa | 0 mm | - | 174 W/m² | - |
| 1777665155 | 15.56° C | 49% | 1016.9 hPa | 0 mm | - | 769 W/m² | - |
| 1777664851 | 15° C | 47% | 1016.9 hPa | 0 mm | - | 767 W/m² | - |
| 1777664547 | 15° C | 49% | 1016.9 hPa | 0 mm | - | 217 W/m² | - |
| 1777664243 | 15.56° C | 50% | 1016.9 hPa | 0 mm | - | 328 W/m² | - |
| 1777663942 | 15° C | 54% | 1016.9 hPa | 0 mm | - | 668 W/m² | - |
| 1777663639 | 15° C | 51% | 1016.9 hPa | 0 mm | - | 473 W/m² | - |
| 1777663336 | 15.56° C | 53% | 1016.9 hPa | 0 mm | - | 324 W/m² | - |
| 1777663033 | 15° C | 53% | 1016.9 hPa | 0 mm | - | 857 W/m² | - |
| 1777662731 | 15° C | 54% | 1016.9 hPa | 0 mm | - | 214 W/m² | - |
| 1777662427 | 16.11° C | 49% | 1016.9 hPa | 0 mm | - | 889 W/m² | - |
| 1777662122 | 15.56° C | 53% | 1017.3 hPa | 0 mm | - | 867 W/m² | - |
* Rain latest hour (hover to see other rain measurements)
** Current wind speed in m/s (hover to see current wind gust speed)